Home   Weather   Inverness   Past weeks

Flag for United Kingdom Past Weather in Inverness, Scotland, United Kingdom — Yesterday and Last 2 Weeks

52 °F

Passing clouds.

Feels Like: 47 °F
Forecast: 47 / 55 °F
Wind: 14 mph from Southwest

Location: Inverness / Dalcross

Current Time: Oct 25, 2016 at 11:39:53 PM

Latest Report: Oct 25, 2016 at 11:20 PM

Visibility: N/A

Pressure: 30.01 "Hg

Humidity: 72%

Dew Point: 43 °F

Location of InvernessLocation

Past Weather in Inverness — Graph


Inverness Temperature Yesterday

Maximum temperature yesterday: 48 °F (at 1:20 PM)
Minimum temperature yesterday: 30 °F (at 11:50 PM)
Average temperature yesterday: 38 °F

High & Low Weather Summary for the Past Weeks

High59 °F (Oct 17, 11:50 AM)100% (Oct 11, 4:20 AM)30.48 "Hg (Oct 11, 4:20 AM)
Low28 °F (Oct 23, 7:50 AM)67% (Oct 16, 1:50 PM)29.62 "Hg (Oct 17, 5:20 AM)
Average46 °F90%30.09 "Hg
* Reported Oct 10 10:20 PM — Oct 25 10:20 PM, Inverness, Weather by CustomWeather, © 2016

Note: Actual official high and low records may vary slightly from our data, if they occured in-between our weather recording intervals... More about our weather records


Inverness Weather History for the Previous 24 Hours

Scroll right to see more
Time TempWeatherWind HumidityBarometerVisibility
10:20 PM
Tue, Oct 25
50 °FPassing clouds.5 mph76%30.01 "HgN/A
9:50 PM48 °FPassing clouds.3 mph76%30.04 "HgN/A
9:20 PM50 °FPassing clouds.6 mph76%30.04 "HgN/A
8:50 PM48 °FPassing clouds.9 mph82%30.04 "HgN/A
8:20 PM46 °FPassing clouds.2 mph82%30.07 "HgN/A
7:50 PM45 °FPassing clouds.No wind87%30.07 "HgN/A
7:20 PM46 °FPassing clouds.No wind82%30.07 "HgN/A
6:50 PM46 °FPassing clouds.6 mph82%30.07 "HgN/A
6:20 PM45 °FPassing clouds.3 mph81%30.09 "HgN/A
5:50 PM45 °FPassing clouds.3 mph81%30.09 "HgN/A
5:20 PM46 °FPassing clouds.3 mph82%30.09 "HgN/A
4:50 PM48 °FPassing clouds.No wind76%30.09 "HgN/A
4:20 PM48 °FPassing clouds.3 mph76%30.09 "HgN/A
3:50 PM50 °FPassing clouds.6 mph71%30.12 "HgN/A
3:20 PM54 °FPassing clouds.7 mph67%30.12 "HgN/A
2:50 PM52 °FPassing clouds.No wind77%30.12 "HgN/A
2:20 PM50 °FPassing clouds.No wind82%30.12 "HgN/A
1:50 PM50 °FPassing clouds.No wind82%30.12 "HgN/A
1:20 PM48 °FPassing clouds.No wind82%30.15 "HgN/A
12:50 PM45 °FPassing clouds.2 mph93%30.15 "HgN/A
12:20 PM45 °FFog.No wind93%30.15 "HgN/A
11:50 AM41 °FFog.No wind100%30.15 "HgN/A
11:20 AM39 °FScattered clouds.3 mph100%30.15 "HgN/A
10:50 AM37 °FFog.3 mph100%30.15 "Hg0 mi
10:20 AM36 °FFog.5 mph100%30.18 "Hg0 mi
9:50 AM36 °FFog.2 mph100%30.18 "HgN/A
9:20 AM34 °FFog.2 mph100%30.18 "HgN/A
8:50 AM34 °FFog.6 mph100%30.18 "Hg1 mi
8:20 AM30 °FFog.2 mph100%30.18 "Hg1 mi
7:50 AM32 °FFog.No wind100%30.18 "Hg5 mi
7:20 AM30 °FFog.2 mph100%30.18 "HgN/A
6:20 AM34 °FFog.5 mph100%30.18 "Hg1 mi
5:50 AM34 °FFog.5 mph100%30.18 "Hg1 mi
5:20 AM36 °FFog.6 mph93%30.18 "Hg1 mi
4:50 AM36 °FFog.6 mph100%30.18 "Hg1 mi
4:20 AM37 °FFog.7 mph100%30.18 "Hg1 mi
3:50 AM37 °FFog.5 mph100%30.18 "Hg0 mi
3:20 AM37 °FFog.6 mph100%30.18 "Hg1 mi
2:50 AM37 °FFog.5 mph93%30.18 "Hg1 mi
2:20 AM36 °FFog.2 mph100%30.18 "Hg1 mi
1:50 AM36 °FFog.3 mph100%30.18 "Hg0 mi
1:20 AM34 °FLight snow. Dense fog.5 mph100%30.18 "Hg0 mi
12:50 AM30 °FPassing clouds.3 mph93%30.18 "HgN/A
12:20 AM28 °FChilly.No wind100%30.18 "HgN/A
11:50 PM
Mon, Oct 24
30 °FChilly.No wind100%30.18 "HgN/A
11:20 PM32 °FChilly.No wind100%30.18 "HgN/A
Weather by CustomWeather, © 2016

See weather overviewHow to use our weather pages